| time (UTC) | temp F | wind direction | speed MPH | gust MPH | rain 1hr in | rain 24hr in | rain mn in | humidity % | barometer mb |
| 20260831130057 | 76 | 0 | 0.0 | 2.0 | 0.00 | 0.00 | 0.00 | 90 | 1020.6 |
| 20260831124607 | 74 | 0 | 0.0 | 2.0 | 0.00 | 0.00 | 0.00 | 93 | 1020.5 |
| 20260831123059 | 73 | 0 | 0.0 | 1.0 | 0.00 | 0.00 | 0.00 | 96 | 1020.4 |
| 20260831121555 | 72 | 0 | 0.0 | 1.0 | 0.00 | 0.00 | 0.00 | 96 | 1020.3 |
| 20260831120104 | 72 | 0 | 0.0 | 1.0 | 0.00 | 0.00 | 0.00 | 96 | 1020.2 |
| 20260831114607 | 71 | 0 | 0.0 | 0.0 | 0.00 | 0.00 | 0.00 | 96 | 1020.1 |
| 20260831113109 | 71 | 0 | 0.0 | 0.0 | 0.00 | 0.00 | 0.00 | 96 | 1020.0 |
| 20260831111602 | 70 | 0 | 0.0 | 0.0 | 0.00 | 0.00 | 0.00 | 95 | 1019.9 |
| 20260831110056 | 70 | 0 | 0.0 | 0.0 | 0.00 | 0.00 | 0.00 | 95 | 1019.9 |
| 20260831104610 | 71 | 0 | 0.0 | 0.0 | 0.00 | 0.00 | 0.00 | 95 | 1020.0 |
| 20260831103106 | 71 | 0 | 0.0 | 0.0 | 0.00 | 0.00 | 0.00 | 95 | 1019.8 |
| 20260831101559 | 71 | 0 | 0.0 | 1.0 | 0.00 | 0.00 | 0.00 | 95 | 1019.5 |
| 20260831100103 | 71 | 0 | 0.0 | 0.0 | 0.00 | 0.00 | 0.00 | 95 | 1019.4 |
| 20260831094609 | 71 | 0 | 0.0 | 0.0 | 0.00 | 0.00 | 0.00 | 95 | 1019.4 |
| 20260831093100 | 71 | 0 | 0.0 | 0.0 | 0.00 | 0.00 | 0.00 | 95 | 1019.5 |
| 20260831091606 | 71 | 0 | 0.0 | 0.0 | 0.00 | 0.00 | 0.00 | 95 | 1019.4 |
| 20260831090105 | 72 | 0 | 0.0 | 0.0 | 0.00 | 0.00 | 0.00 | 95 | 1019.5 |
| 20260831084601 | 72 | 0 | 0.0 | 1.0 | 0.00 | 0.00 | 0.00 | 95 | 1019.4 |
| 20260831083105 | 72 | 0 | 0.0 | 0.0 | 0.00 | 0.00 | 0.00 | 95 | 1019.5 |
| 20260831081603 | 72 | 0 | 0.0 | 1.0 | 0.00 | 0.00 | 0.00 | 95 | 1019.5 |
| 20260831080056 | 71 | 0 | 0.0 | 0.0 | 0.00 | 0.00 | 0.00 | 95 | 1019.4 |
| 20260831074604 | 71 | 0 | 0.0 | 0.0 | 0.00 | 0.00 | 0.00 | 95 | 1019.5 |
| 20260831073101 | 71 | 0 | 0.0 | 0.0 | 0.00 | 0.00 | 0.00 | 95 | 1019.5 |
| 20260831071604 | 71 | 0 | 0.0 | 0.0 | 0.00 | 0.00 | 0.00 | 94 | 1019.5 |
| 20260831070106 | 72 | 0 | 0.0 | 0.0 | 0.00 | 0.00 | 0.00 | 94 | 1019.5 |
| 20260831064604 | 72 | 0 | 0.0 | 0.0 | 0.00 | 0.00 | 0.00 | 94 | 1019.6 |
| 20260831063058 | 72 | 0 | 0.0 | 0.0 | 0.00 | 0.00 | 0.00 | 94 | 1019.7 |
| 20260831061603 | 72 | 0 | 0.0 | 0.0 | 0.00 | 0.00 | 0.00 | 94 | 1019.9 |
| 20260831060104 | 72 | 0 | 0.0 | 0.0 | 0.00 | 0.00 | 0.00 | 94 | 1019.9 |
| 20260831054555 | 72 | 0 | 0.0 | 0.0 | 0.00 | 0.00 | 0.00 | 94 | 1020.0 |
| 20260831053110 | 72 | 0 | 0.0 | 0.0 | 0.00 | 0.00 | 0.00 | 93 | 1020.1 |
| 20260831051559 | 72 | 0 | 0.0 | 0.0 | 0.00 | 0.00 | 0.00 | 93 | 1020.2 |
| 20260831050115 | 73 | 0 | 0.0 | 0.0 | 0.00 | 0.00 | 0.00 | 93 | 1020.2 |
| 20260831044617 | 73 | 0 | 0.0 | 0.0 | 0.00 | 0.00 | 0.00 | 93 | 1020.3 |
| 20260831043059 | 73 | 0 | 0.0 | 0.0 | 0.00 | 0.00 | 0.00 | 93 | 1020.3 |
| 20260831041613 | 73 | 0 | 0.0 | 0.0 | 0.00 | 0.00 | 0.00 | 93 | 1020.2 |
| 20260831034606 | 73 | 0 | 0.0 | 0.0 | 0.00 | 0.00 | 0.00 | 93 | 1020.4 |
| 20260831033107 | 73 | 0 | 0.0 | 0.0 | 0.00 | 0.00 | 0.00 | 93 | 1020.4 |
| 20260831031603 | 73 | 0 | 0.0 | 0.0 | 0.00 | 0.00 | 0.00 | 93 | 1020.5 |
| 20260831030104 | 73 | 0 | 0.0 | 0.0 | 0.00 | 0.00 | 0.00 | 93 | 1020.5 |
| 20260831024613 | 73 | 0 | 0.0 | 0.0 | 0.00 | 0.00 | 0.00 | 92 | 1020.6 |
| 20260831023103 | 73 | 0 | 0.0 | 0.0 | 0.00 | 0.00 | 0.00 | 92 | 1020.6 |
| 20260831021601 | 73 | 0 | 0.0 | 0.0 | 0.00 | 0.00 | 0.00 | 91 | 1020.7 |
| 20260831020118 | 74 | 0 | 0.0 | 0.0 | 0.00 | 0.00 | 0.00 | 91 | 1020.6 |
| 20260831014609 | 74 | 0 | 0.0 | 0.0 | 0.00 | 0.00 | 0.00 | 90 | 1020.7 |
| 20260831013057 | 74 | 0 | 0.0 | 0.0 | 0.00 | 0.00 | 0.00 | 90 | 1020.8 |
| 20260831011613 | 74 | 0 | 0.0 | 0.0 | 0.00 | 0.00 | 0.00 | 89 | 1020.9 |
| 20260831010059 | 75 | 0 | 0.0 | 0.0 | 0.00 | 0.00 | 0.00 | 88 | 1020.7 |
| 20260831004555 | 75 | 0 | 0.0 | 1.0 | 0.00 | 0.00 | 0.00 | 87 | 1020.3 |
| 20260831003106 | 76 | 0 | 0.0 | 0.0 | 0.00 | 0.00 | 0.00 | 86 | 1020.0 |
| 20260831001557 | 77 | 0 | 0.0 | 0.0 | 0.00 | 0.00 | 0.00 | 85 | 1019.9 |
| 20260831000053 | 78 | 0 | 0.0 | 0.0 | 0.00 | 0.00 | 0.00 | 84 | 1020.0 |
| 20260830234613 | 79 | 0 | 0.0 | 0.0 | 0.00 | 0.00 | 0.00 | 82 | 1020.0 |
| 20260830233055 | 80 | 0 | 0.0 | 0.0 | 0.00 | 0.00 | 0.00 | 80 | 1020.1 |
| 20260830231555 | 81 | 0 | 0.0 | 0.0 | 0.00 | 0.00 | 0.00 | 78 | 1020.1 |
| 20260830230105 | 82 | 0 | 0.0 | 0.0 | 0.00 | 0.00 | 0.00 | 76 | 1020.0 |
| 20260830224556 | 84 | 0 | 0.0 | 1.0 | 0.00 | 0.00 | 0.00 | 72 | 1020.1 |
| 20260830223053 | 85 | 0 | 0.0 | 3.0 | 0.00 | 0.00 | 0.00 | 71 | 1020.0 |
| 20260830221605 | 85 | 117 | 1.0 | 5.0 | 0.00 | 0.00 | 0.00 | 68 | 1020.1 |
| 20260830220110 | 86 | 0 | 0.0 | 4.0 | 0.00 | 0.00 | 0.00 | 67 | 1020.3 |
| 20260830214606 | 85 | 84 | 1.0 | 4.0 | 0.00 | 0.00 | 0.00 | 68 | 1020.2 |
| 20260830213108 | 86 | 0 | 1.0 | 5.0 | 0.00 | 0.00 | 0.00 | 67 | 1020.2 |
| 20260830211608 | 86 | 91 | 0.0 | 3.0 | 0.00 | 0.00 | 0.00 | 69 | 1020.1 |
| 20260830210106 | 86 | 26 | 1.0 | 4.0 | 0.00 | 0.00 | 0.00 | 69 | 1020.0 |
| 20260830204607 | 87 | 96 | 2.0 | 5.0 | 0.00 | 0.00 | 0.00 | 65 | 1020.2 |
| 20260830203105 | 87 | 67 | 0.0 | 2.0 | 0.00 | 0.00 | 0.00 | 70 | 1020.3 |
| 20260830201614 | 87 | 0 | 0.0 | 3.0 | 0.00 | 0.00 | 0.00 | 64 | 1020.4 |
| 20260830200054 | 87 | 117 | 0.0 | 3.0 | 0.00 | 0.00 | 0.00 | 66 | 1020.5 |
| 20260830194605 | 88 | 88 | 0.0 | 2.0 | 0.00 | 0.00 | 0.00 | 66 | 1020.8 |
| 20260830193058 | 88 | 236 | 1.0 | 5.0 | 0.00 | 0.00 | 0.00 | 68 | 1021.1 |
| 20260830191602 | 88 | 0 | 0.0 | 3.0 | 0.00 | 0.00 | 0.00 | 64 | 1021.5 |
| 20260830190100 | 88 | 0 | 0.0 | 5.0 | 0.00 | 0.00 | 0.00 | 65 | 1021.6 |
| 20260830184557 | 88 | 0 | 1.0 | 6.0 | 0.00 | 0.00 | 0.00 | 63 | 1021.8 |
| 20260830183100 | 87 | 0 | 1.0 | 4.0 | 0.00 | 0.00 | 0.00 | 66 | 1022.0 |
| 20260830181606 | 87 | 0 | 0.0 | 5.0 | 0.00 | 0.00 | 0.00 | 69 | 1022.4 |
| 20260830180108 | 87 | 0 | 0.0 | 3.0 | 0.00 | 0.00 | 0.00 | 68 | 1022.6 |
| 20260830174613 | 87 | 0 | 0.0 | 3.0 | 0.00 | 0.00 | 0.00 | 70 | 1022.7 |
| 20260830173110 | 87 | 44 | 0.0 | 5.0 | 0.00 | 0.00 | 0.00 | 67 | 1022.8 |
| 20260830171603 | 86 | 0 | 0.0 | 5.0 | 0.00 | 0.00 | 0.00 | 66 | 1022.9 |
| 20260830170110 | 84 | 0 | 0.0 | 3.0 | 0.00 | 0.00 | 0.00 | 73 | 1023.0 |
| 20260830164559 | 84 | 0 | 1.0 | 5.0 | 0.00 | 0.00 | 0.00 | 73 | 1023.0 |
| 20260830163104 | 84 | 0 | 0.0 | 3.0 | 0.00 | 0.00 | 0.00 | 74 | 1023.1 |
| 20260830161604 | 84 | 0 | 0.0 | 3.0 | 0.00 | 0.00 | 0.00 | 72 | 1023.1 |
| 20260830160106 | 84 | 0 | 0.0 | 4.0 | 0.00 | 0.00 | 0.00 | 71 | 1023.5 |
| 20260830154610 | 84 | 0 | 0.0 | 5.0 | 0.00 | 0.00 | 0.00 | 75 | 1023.8 |
| 20260830153106 | 82 | 0 | 0.0 | 6.0 | 0.00 | 0.00 | 0.00 | 76 | 1023.8 |
| 20260830151626 | 82 | 89 | 1.0 | 7.0 | 0.00 | 0.00 | 0.00 | 76 | 1023.7 |
| 20260830150106 | 80 | 70 | 0.0 | 5.0 | 0.00 | 0.00 | 0.00 | 80 | 1023.6 |
| 20260830144606 | 80 | 0 | 0.0 | 2.0 | 0.00 | 0.00 | 0.00 | 82 | 1023.7 |
| 20260830143107 | 79 | 27 | 0.0 | 3.0 | 0.00 | 0.00 | 0.00 | 83 | 1023.8 |
| 20260830141605 | 78 | 47 | 0.0 | 3.0 | 0.00 | 0.00 | 0.00 | 87 | 1023.8 |
| 20260830140104 | 76 | 0 | 0.0 | 3.0 | 0.00 | 0.00 | 0.00 | 90 | 1023.7 |
| 20260830134600 | 74 | 0 | 0.0 | 1.0 | 0.00 | 0.00 | 0.00 | 93 | 1024.1 |
| 20260830133058 | 74 | 0 | 0.0 | 2.0 | 0.00 | 0.00 | 0.00 | 94 | 1024.2 |
| 20260830131608 | 74 | 284 | 0.0 | 2.0 | 0.00 | 0.00 | 0.00 | 96 | 1024.3 |